Regional Weather Roundup
Issued by NWS

Home | Current Version | Previous Version | Text Only | Print | Product List | Glossary Off
Versions: 1 2 3 4 5 6 7 8 9 10 11 12 13 14 15 16 17 18 19 20 21 22 23 24 25 26 27 28 29 30 31 32 33 34 35 36 37 38 39 40 41 42 43 44 45 46 47 48 49 50

000
ASUS43 KMPX 310501
RWRMN
WEATHER ROUNDUP FOR MINNESOTA
NATIONAL WEATHER SERVICE TWIN CITIES/CHANHASSEN MN
1200 AM CDT SUN JUL 31 2016


NOTE: "FAIR" INDICATES FEW OR NO CLOUDS BELOW 12,000 FEET WITH NO
SIGNIFICANT WEATHER AND/OR OBSTRUCTIONS TO VISIBILITY. N/A MEANS
CURRENT SKY AND/OR WEATHER CONDITIONS ARE NOT AVAILABLE.

MNZ060>063-068>070-310600-
   Twin Cities Metro

CITY           SKY/WX    TMP DP  RH WIND       PRES   REMARKS
TWIN CITIES    PTCLDY    70  65  84 SE7       30.00R
ST PAUL        CLEAR     70  65  84 SE5       30.00R
CRYSTAL        CLEAR     71  62  73 CALM      29.98S
BLAINE         CLEAR     70  64  83 CALM      30.00R
LAKEVILLE      CLEAR     64  64 100 CALM      30.01R
EDEN PRAIRIE   CLEAR     69  64  84 SE7       29.99R
LAKEVILLE      CLEAR     64  64 100 CALM      30.01R
SOUTH ST PAUL  CLEAR     69  64  83 CALM      30.00S
LAKE ELMO      FAIR      66  64  94 CALM      30.02R
$$
MNZ001>005-007-008-013>017-022>024-027-028-310600-
   Northwest Minnesota

CITY           SKY/WX    TMP DP  RH WIND       PRES   REMARKS
BEMIDJI        CLEAR     64  58  80 SE6       29.98R
HALLOCK        CLEAR     66  63  88 S8        29.88S
ROSEAU         CLEAR     66  63  88 S7        29.93R
WARROAD        CLEAR     66  64  94 SE7       29.94S
THIEF RVR FALL CLEAR     65  60  84 SE7       29.94S
CROOKSTON      CLEAR     64  61  88 SE8       29.92R
FOSSTON        CLEAR     64  57  77 SE7       29.96S
DETROIT LAKES  CLEAR     64  59  82 S6        29.97F
MOORHEAD       CLEAR     64  59  82 SE6       29.93S
PARK RAPIDS    CLEAR     67  59  75 SE8       29.98S
MAHNOMEN       FAIR      63  58  86 SE7       29.95S
$$
MNZ006-009>011-018-025>026-310600-
   North Central Minnesota

CITY           SKY/WX    TMP DP  RH WIND       PRES   REMARKS
BAUDETTE       CLEAR     64  59  83 S7        29.96S
FLAG ISLAND    PTCLDY    73  64  73 S10G16    29.93R
INTL FALLS     CLEAR     57  56  96 SE3       29.99R
WASKISH        CLEAR     61  59  94 CALM      29.98S
BIG FORK       CLEAR     61  57  88 CALM      30.01R
LONGVILLE      CLEAR     63  61  94 CALM      30.00R
GRAND RAPIDS   CLEAR     64  61  90 SE5       30.03S
ORR            CLEAR     63  55  77 CALM      30.00S
COOK           CLEAR     57  57 100 CALM      30.03R
WALKER         FAIR      67  60  77 SE6       29.98S
$$
MNZ012-019>021-037-310600-
   Northeast Minnesota

CITY           SKY/WX    TMP DP  RH WIND       PRES   REMARKS
DULUTH         CLEAR     61  59  93 E8        30.03F
ELY            CLEAR     61  57  88 CALM      30.04S
HIBBING        CLEAR     55  55 100 CALM      30.03R
EVELETH        CLEAR     60  59  96 CALM      30.05R
DULUTH HARBOR  PTCLDY    64  63  94 NE12      30.03S
TWO HARBORS    PTCLDY    64  59  82 N5        30.02S
SILVER BAY     CLEAR     57  55  94 CALM      30.03S
GRAND MARAIS     N/A     64  56  75 N5        30.04S
G MARAIS ARPRT PTCLDY    55  52  88 N3        30.09S
$$
MNZ029>031-032-039>041-046>048-054>057-064-310600-
   West Central Minnesota

CITY           SKY/WX    TMP DP  RH WIND       PRES   REMARKS
FERGUS FALLS   CLEAR     66  57  72 SE7       29.96F
WHEATON        CLEAR     63  61  94 SE7       29.95F
MORRIS         CLEAR     63  59  88 SE7       29.94F
ALEXANDRIA     CLEAR     65  57  75 SE6       29.99F
ELBOW LAKE     FAIR      64  58  80 SE6       29.96F
WADENA         CLEAR     63  57  82 SE2       29.98S
GLENWOOD       CLEAR     61  57  88 E5        29.99S
APPLETON       CLEAR     64  57  77 E5        29.95S
BENSON         CLEAR     66  55  68 SE5       29.96S
ORTONVILLE     CLEAR     64  57  77 CALM      29.94S
MADISON        CLEAR     63  59  88 SE5       29.95S
WILLMAR        FAIR      64  61  88 SE5       29.99S
$$
MNZ033>034-036-042>043-049>051-058-059-310600-
   Central Minnesota

CITY           SKY/WX    TMP DP  RH WIND       PRES   REMARKS
ST CLOUD       CLEAR     66  64  93 E5        29.99S
SAUK CENTRE    FAIR      61  59  94 CALM      29.98F
PAYNESVILLE    CLEAR     67  60  78 SE5       29.99S
AITKIN         CLEAR     66  59  77 E3        30.00R
PINE RIVER     CLEAR     63  63 100 CALM      30.03S
BRAINERD       CLEAR     66  63  90 SE5       29.99S
STAPLES        CLEAR     64  61  88 SE5       29.99S
LONG PRAIRIE   FAIR      61  57  88 CALM      30.00S
LITTLE FALLS   CLEAR     64  61  88 SE3       29.99S
LITCHFIELD     CLEAR     70  66  88 CALM      29.99S
BUFFALO        CLEAR     66  62  85 CALM      30.00S
MAPLE LAKE     CLEAR     68  66  93 CALM      30.00S
HUTCHINSON     CLEAR     67  65  94 CALM      30.00S
$$
MNZ037-044-045-052-053-310600-
   East Central Minnesota

CITY           SKY/WX    TMP DP  RH WIND       PRES   REMARKS
PRINCETON        N/A     64  61  88 CALM      30.00S
MORA           PTCLDY    63  61  94 CALM      30.02S
CAMBRIDGE      CLEAR     66  57  72 CALM      29.99R
RUSH CITY      RAIN      64  62  95 CALM      30.01S
MOOSE LAKE     MOCLDY    61  59  94 CALM      30.01R
HINCKLEY       FAIR      61  61 100 CALM      30.01S
CLOQUET        PTCLDY    61  55  82 CALM      30.03S
MCGREGOR       CLEAR     63  61  94 E3        30.02S
$$
MNZ071>073-080-081-089-090-097-098-310600-
   Southwest Minnesota

CITY           SKY/WX    TMP DP  RH WIND       PRES   REMARKS
MONTEVIDEO     CLEAR     64  57  77 S7        29.97F
GRANITE FALLS  CLEAR     67  59  76 E6        29.98S
CANBY          CLEAR     65  60  85 S3        29.96F
MARSHALL       CLOUDY    66  61  84 SE8       29.96F
REDWOOD FALLS  CLEAR     65  60  84 SE6       29.96F
OLIVIA         CLEAR     64  59  82 SE3       29.97F
PIPESTONE      CLOUDY    66  59  77 SE7       29.97F
WINDOM         CLOUDY    68  63  83 SE6       29.99F
WORTHINGTON    CLOUDY    67  62  84 SE8       29.99F
JACKSON        CLEAR     68  61  77 SE7       30.00F
TRACY          CLOUDY    67  63  84 S6        29.97F
SLAYTON        CLOUDY    60  58  94 SE6       29.99F
$$
MNZ065>067-074>077-082>085-091>093-310600-
   South Central Minnesota

CITY           SKY/WX    TMP DP  RH WIND       PRES   REMARKS
MANKATO        CLEAR     68  61  77 SE8       30.00S
NEW ULM        CLEAR     68  64  88 SE7       29.98F
ST JAMES       CLEAR     63  61  94 SE6       30.00S
FAIRMONT       CLEAR     66  61  82 SE6       29.99S
GLENCOE        CLEAR     67  65  93 CALM      29.99S
FARIBAULT      PTCLDY    66  63  88 CALM      30.01S
OWATONNA       CLEAR     66  61  82 SE3       30.01S
WASECA         CLEAR     63  61  94 E5        30.02S
ALBERT LEA     CLEAR     66  64  94 SE3       30.02R
$$
MNZ078>079-086>088-094>096-310600-
   Southeast Minnesota

CITY           SKY/WX    TMP DP  RH WIND       PRES   REMARKS
ROCHESTER      CLOUDY    67  65  93 SE5       30.03S
RED WING       CLEAR     66  64  94 CALM      30.00R
STANTON        PTCLDY    64  63  94 CALM      30.00R
DODGE CENTER   CLOUDY    64  63  94 SE5       30.03R
WINONA         CLEAR     70  64  83 CALM      30.02S
AUSTIN         CLEAR     64  63  94 CALM      30.02S
PRESTON        CLOUDY    68  62  80 SE3       30.04S
$$
ABBREVIATIONS USED IN REMARKS
   TC - TEMPERATURES IN CELSIUS
  WCI - WIND CHILL INDEX
   HX - HEAT INDEX
  VSB - VISIBILITY
$$




USA.gov is the U.S. government's official web portal to all federal, state and local government web resources and services.